Location: Lafig�re
(44.4503°N, 4.0357°E)
Time: 15:41:39
(UTC+00:00)

Vanguard 2 Rocket - Pass Details

Date: 25 January 2021
Orbit: 554 x 3325 km, 32.9° (Epoch: 06 March)

Event Time Altitude Azimuth Distance (km) Brightness Sun altitude
Rises 14:34:26 0° 235° (SW) 6,841 12.8 17.2°
Reaches altitude 10° 14:39:56 10° 229° (SW) 5,470 13.2 16.6°
Maximum altitude 14:53:02 38° 170° (S) 2,673 9.9 15.0°
Drops below altitude 10° 15:01:06 10° 106° (ESE) 3,384 9.6 14.0°
Sets 15:03:39 0° 98° (E) 4,054 9.9 13.7°
